Regional Weather Roundup
Issued by NWS

Home | Current Version | Previous Version | Text Only | Print | Product List | Glossary On
Versions: 1 2 3 4 5 6 7 8 9 10 11 12 13 14 15 16 17 18 19 20 21 22 23 24 25 26 27 28
000
ASUS45 KBOI 161210
RWRID

IDAHO REGIONAL WEATHER ROUNDUP
NATIONAL WEATHER SERVICE BOISE ID
500 AM MST TUE JAN 16 2018

NOTE: "FAIR" INDICATES FEW OR NO CLOUDS BELOW 12000 FEET
WITH NO SIGNIFICANT WEATHER AND/OR OBSTRUCTIONS TO VISIBILITY

IDZ012-014-161300-
SOUTHWEST IDAHO


CITY           SKY/WX    TMP DP  RH WIND       PRES   REMARKS
BOISE          CLEAR     36  28  73 SE8       30.19F WCI  30
CALDWELL       NOT AVBL
MOUNTAIN HOME  CLEAR     36  31  84 SE15      30.20F WCI  26
$$

IDZ016-017-161300-
SOUTHCENTRAL IDAHO


CITY           SKY/WX    TMP DP  RH WIND       PRES   REMARKS
BURLEY         CLEAR     31  25  78 NE17      30.24F WCI  19
JEROME         CLEAR     32  24  72 NE23      30.23S WCI  19
TWIN FALLS     CLEAR     29  27  92 E10       30.24S WCI  20
$$

IDZ019>023-161300-
SOUTHEAST IDAHO


CITY           SKY/WX    TMP DP  RH WIND       PRES   REMARKS
IDAHO FALLS    CLEAR     21  19  92 S5        30.35S WCI  15
POCATELLO      CLEAR     21  18  88 W5        30.32S WCI  15
REXBURG        CLEAR     13  11  92 NE3       30.36S
$$

IDZ006-010-011-018-031-032-161300-
CENTRAL IDAHO MOUNTAINS


CITY           SKY/WX    TMP DP  RH WIND       PRES   REMARKS
MCCALL         FOG       18  15  88 CALM      30.18F VSB 1/4
HAILEY         CLEAR     27  21  80 NW9       30.29S WCI  17
STANLEY        NOT AVBL
SALMON         CLOUDY    28  24  85 S7        30.37F WCI  21
CHALLIS        CLOUDY    23  20  88 CALM      30.34F
$$

IDZ002-004-006-007-026-161300-
NORTHERN IDAHO


CITY           SKY/WX    TMP DP  RH WIND       PRES   REMARKS
LEWISTON       PTCLDY    37  35  92 E5        30.12F WCI  33
LOWELL         NOT AVBL
COEUR D`ALENE  CLEAR     33  29  85 NE10      30.15F WCI  25
MULLAN PASS    FOG       26  23  88 S9        30.12S VSB 3/4 WCI  17
$$




USA.gov is the U.S. government's official web portal to all federal, state and local government web resources and services.